User: anonymous
Location: PFO Observatory
(45.2937°N, 66.0991°W)
Time: 01:24:22
(UTC-03:00)
Language:

Cosmos 1151 Rocket - Orbit

View from above orbital plane
View from above orbital plane
View from above satellite
View from above satellite

Ground track
Ground track

The orbit data is extracted from the following two-line orbital elements,

1 11672U 80005B   14244.38209551  .00000264  00000-0  26514-4 0  1028
2 11672 082.5177 321.6026 0018563 102.2662 307.2206 14.87222916871784
Epoch (UTC): 01 September 2014 09:10:13
Eccentricity: 0.0018563
inclination: 82.5177°
perigee height: 593 km
apogee height: 619 km
right ascension of ascending node: 321.6026°
argument of perigee: 102.2662°
revolutions per day: 14.87222916
mean anomaly at epoch: 307.2206°
orbit number at epoch: 87178

The dashed part of the orbit path shows where the satellite is in the earth's shadow,  

DLR